Weather History for Tacoma, WA

Change the Weather History Date:

Sunday, August 3, 2014

  Actual Average Record
Temperature  
Mean Temperature 70 °F -  
Max Temperature 88 °F 75 °F 91 °F (1993)
Min Temperature 53 °F 52 °F 43 °F (1956)
Cooling Degree Days 5    
Growing Degree Days 20 (Base 50)    
Moisture  
Dew Point 55 °F    
Average Humidity 65    
Maximum Humidity 100    
Minimum Humidity 29    
Precipitation  
Precipitation 0.00 in - - ()
Sea Level Pressure  
Sea Level Pressure 30.03 in    
Wind  
Wind Speed 4 mph (North)    
Max Wind Speed 12 mph    
Max Gust Speed -    
Visibility 10 miles    
Events      
Averages and records for this station are not official NWS values.
T = Trace of Precipitation, MM = Missing Value Source: NWS Daily Summary

Daily Weather History Graph

Daily Weather History Graph

Search for Another Location

Airport:

Trip Planner

Search our weather history database for the weather conditions in past years. The results will help you decide how hot, cold, wet, or windy it might be!

Date:

Astronomy

Aug. 03, 2014 Rise Set
Actual Time 5:51 AM PDT 8:39 PM PDT
Civil Twilight 5:16 AM PDT 9:14 PM PDT
Nautical Twilight 4:31 AM PDT 9:59 PM PDT
Astronomical Twilight 3:37 AM PDT 10:52 PM PDT
Moon 1:50 PM PDT (8/3) No Moon Set
Length of Visible Light 15h 58m
Length of Day
14h 48m
Waxing Crescent, 48% of the Moon is Illuminated
Aug 3
Waxing Crescent
Aug 3
First Quarter
Aug 10
Full
Aug 17
Last Quarter
Aug 25
New

Hourly Weather History & Observations

Time (PDT) Temp. Heat Index Dew Point Humidity Pressure Visibility Wind Dir Wind Speed Gust Speed Precip Events Conditions
12:58 AM 63.9 °F - 55.9 °F 75% 30.04 in 10.0 mi WNW 3.5 mph - N/A   Clear
1:58 AM 61.7 °F - 55.9 °F 81% 30.05 in 10.0 mi SW 1.2 mph - N/A   Clear
2:58 AM 60.3 °F - 56.1 °F 86% 30.06 in 10.0 mi SSW 2.3 mph - N/A   Clear
3:58 AM 59.4 °F - 56.3 °F 90% 30.07 in 10.0 mi Calm Calm - N/A   Clear
4:58 AM 58.3 °F - 55.9 °F 92% 30.07 in 10.0 mi Calm Calm - N/A   Partly Cloudy
5:51 AM 55.4 °F - 53.6 °F 94% 30.06 in 8.0 mi South 2.3 mph - N/A   Partly Cloudy
5:58 AM 54.5 °F - 53.8 °F 97% 30.07 in 6.0 mi South 2.3 mph - N/A   Clear
6:15 AM 53.6 °F - 53.6 °F 100% 30.06 in 6.0 mi SSE 1.2 mph - N/A   Mostly Cloudy
6:40 AM 55.4 °F - 55.4 °F 100% 30.07 in 8.0 mi South 3.5 mph - N/A   Scattered Clouds
6:58 AM 56.1 °F - 55.6 °F 98% 30.08 in 10.0 mi South 2.3 mph - N/A   Clear
7:58 AM 60.6 °F - 57.2 °F 88% 30.08 in 10.0 mi South 1.2 mph - N/A   Clear
8:58 AM 64.0 °F - 57.6 °F 79% 30.09 in 10.0 mi Variable 1.2 mph - N/A   Clear
9:58 AM 68.4 °F - 58.1 °F 70% 30.08 in 10.0 mi Variable 2.3 mph - N/A   Clear
10:58 AM 72.1 °F - 58.6 °F 62% 30.07 in 10.0 mi North 4.6 mph - N/A   Clear
11:58 AM 78.4 °F - 60.3 °F 53% 30.05 in 10.0 mi Variable 3.5 mph - N/A   Clear
12:58 PM 81.1 °F 81.0 °F 56.3 °F 42% 30.03 in 10.0 mi North 9.2 mph - 0.00 in   Clear
1:58 PM 84.6 °F - 50.7 °F 31% 30.01 in 10.0 mi North 11.5 mph - N/A   Clear
2:58 PM 85.6 °F - 49.8 °F 29% 30.00 in 10.0 mi NNE 11.5 mph - N/A   Clear
3:58 PM 87.4 °F - 52.3 °F 30% 29.97 in 10.0 mi NE 11.5 mph - N/A   Clear
4:58 PM 87.8 °F 85.7 °F 54.0 °F 31% 29.96 in 10.0 mi Variable 6.9 mph - N/A   Clear
5:58 PM 87.6 °F - 51.8 °F 29% 29.94 in 10.0 mi North 11.5 mph - N/A   Clear
6:58 PM 86.5 °F - 52.2 °F 31% 29.95 in 10.0 mi NNE 8.1 mph - N/A   Clear
7:58 PM 83.5 °F 82.2 °F 53.6 °F 36% 29.95 in 10.0 mi North 10.4 mph - N/A   Clear
8:58 PM 77.4 °F - 54.1 °F 44% 29.95 in 10.0 mi NNE 4.6 mph - N/A   Clear
9:58 PM 74.3 °F - 54.7 °F 50% 29.97 in 10.0 mi NE 2.3 mph - N/A   Clear
10:58 PM 68.4 °F - 55.9 °F 64% 29.97 in 10.0 mi NW 1.2 mph - N/A   Clear
11:58 PM 63.1 °F - 55.9 °F 77% 29.98 in 10.0 mi North 1.2 mph - N/A   Clear